Starlink 36267

operational
NORAD ID: 67198 Int'l Des: 2025-304 Owner: SPXS Country: US Constellation: starlink
LEOCIRCULAR

Starlink 36267について

説明を読み込み中...

リアルタイム位置

3D地球を読み込み中...

次回通過

高度履歴

Altitude vs Time

uPlot chart will show altitude changes over time

軌道要素

1 67198C 25304G 25352.76715278 .00714270 00000+0 98377-3 0 3525
2 67198 69.9983 31.2732 0009087 255.4347 232.4063 16.05061326 10
Epoch: Dec 18, 2025 • Age: 54 hours

現在のステータス

高度 261.0 km
速度 7.75 km/s
衛星直下点 35.83°N, 7.45°E
打ち上げ日 Dec 17, 2025
運用期間 2 days
タイプ internet

技術仕様

分類 Payload
質量 575.00 kg
乾燥質量 530.00 kg
総質量 575.00 kg
長さ 0.30 m
直径 4.10 m
スパン 29.00 m
形状 Box + pan
製造者 SPXS
バスタイプ Starlink V2MO
フェーズステータス In Orbit
所有者/国 SPXS/US

大規模コンステレーション

Loading constellations...